Regional Weather Roundup
Issued by NWS

Home | Current Version | Previous Version | Text Only | Print | Product List | Glossary On
Versions: 1 2 3 4 5 6 7 8 9 10 11 12 13 14 15 16 17 18 19 20 21 22 23 24 25 26 27 28 29 30 31 32 33 34 35 36 37 38 39 40 41 42 43 44 45 46 47 48 49 50
000
ASUS45 KABQ 050110
RWRNM
NEW MEXICO REGIONAL WEATHER ROUNDUP
NATIONAL WEATHER SERVICE ALBUQUERQUE NM
700 PM MDT FRI SEP 04 2015

NOTE: "FAIR" MEANS FEW OR NO CLOUDS BELOW 12,000 FEET AGL WITH NO
       SIGNIFICANT WEATHER OR OBSTRUCTIONS TO VISION.

      THIS PRODUCT IS RELEASED AS TWO VERSIONS.  ONE VERSION NEAR
      THE TOP OF THE HOUR CONTAINING PRELIMINARY DATA FROM ALBUQUERQUE
      AND OTHER STATIONS.  A FINAL VERSION WITH ADDITIONAL DATA IS
      ISSUED ABOUT 10 MINUTES AFTER THE HOUR.

NMZ501-503-504-510>518-050200-
NORTHWEST PLATEAU/NORTHCENTRAL MOUNTAINS

CITY           SKY/WX    TMP DP  RH WIND       PRES   REMARKS
FARMINGTON     CLOUDY    68  54  60 E12       30.05F
LOS ALAMOS     CLOUDY    58  58 100 S6        30.24S
SANTA FE       LGT RAIN  62  57  83 CALM      30.18F
TAOS           CLOUDY    59  46  63 CALM      30.25F
ANGEL FIRE     CLOUDY    54  49  84 CALM      30.31F

$$
NMZ402-403-502-505>509-050200-
WESTCENTRAL MOUNTAINS/SOUTHWEST MOUNTAINS

CITY           SKY/WX    TMP DP  RH WIND       PRES   REMARKS
GALLUP         LGT RAIN  63  57  81 CALM      30.13S
GRANTS         CLOUDY    65  54  68 SE13G20   30.17R
SILVER CITY      N/A     64  59  82 N9        30.16S

$$
NMZ407-409-411-412-050200-
SOUTHERN DESERTS

CITY           SKY/WX    TMP DP  RH WIND       PRES   REMARKS
LORDSBURG      MOCLDY    68  59  73 NW6       30.07S
DEMING         CLOUDY    73  57  57 W16       30.06R
LAS CRUCES     MOCLDY    81  50  34 W12       30.04R
HOLLOMAN AFB   CLOUDY    83  53  34 N10       29.99S
ALAMOGORDO     CLOUDY    82  52  34 N9        30.01S
T OR C         CLOUDY    76  57  51 W5        30.08R

$$
NMZ519>523-050200-
CENTRAL VALLEYS/CENTRAL HIGHLANDS

CITY           SKY/WX    TMP DP  RH WIND       PRES   REMARKS
ALBUQUERQUE    CLOUDY    69  56  62 E3        30.12F
DOUBLE EAGLE   LGT RAIN  64  59  82 SE5       30.15S
MORIARTY ARPT  DRIZZLE   65  56  70 CALM      30.20R
CLINES CORNERS CLOUDY    64  50  60 W7        30.22R
BELEN          CLOUDY    69  57  66 CALM      30.11S
SOCORRO        DRIZZLE   68  62  79 CALM      30.09F

$$
NMZ524>526-539-540-050200-
SOUTHCENTRAL MOUNTAINS

CITY           SKY/WX    TMP DP  RH WIND       PRES   REMARKS
RUIDOSO        CLOUDY    66  54  63 NW5       30.22S

$$
NMZ527>531-050200-
NORTHEAST HIGHLANDS/NORTHEAST PLAINS

CITY           SKY/WX    TMP DP  RH WIND       PRES   REMARKS
LAS VEGAS      CLOUDY    65  50  58 SW6       30.20F
RATON          CLOUDY    71  47  42 W16       30.13R
CLAYTON        MOCLDY    79  51  37 S12       30.03R

$$
NMZ532>537-050200-
EASTCENTRAL PLAINS

CITY           SKY/WX    TMP DP  RH WIND       PRES   REMARKS
TUCUMCARI      CLOUDY    84  52  33 W12       30.00R
CANNON AFB     CLOUDY    81  54  38 N6        30.01R
CLOVIS AIRPORT CLOUDY    82  54  36 W8        30.03R

$$
NMZ028-029-538-050200-
SOUTHEAST PLAINS

CITY           SKY/WX    TMP DP  RH WIND       PRES   REMARKS
ROSWELL        CLOUDY    90  48  23 SE8       29.94S
ARTESIA        CLOUDY    90  50  25 SE10      29.93S
CARLSBAD       MOCLDY    93  47  20 E14       29.90S
HOBBS          PTCLDY    86  48  26 SE10      29.98S


$$


USA.gov is the U.S. government's official web portal to all federal, state and local government web resources and services.